User: anonymous   Login
Location: Theydon Bois
(51.6750°N, 0.1050°E)
Time: 15:05:41
(UTC+00:00)
Language:

Resurs 1-3 - Orbit

View from above orbital plane
View from above orbital plane
View from above satellite
View from above satellite

Ground track
Ground track

The orbit data is extracted from the following two-line orbital elements,

1 23342U 94074A   17350.17049919  .00000063  00000-0  15562-4 0  9996
2 23342  98.0571  29.0593 0000897 114.9818 245.1487 14.79309107244686
Epoch (UTC): 16 December 2017 04:05:31
Eccentricity: 0.0000897
inclination: 98.0571°
perigee height: 631 km
apogee height: 632 km
right ascension of ascending node: 29.0593°
argument of perigee: 114.9818°
revolutions per day: 14.79309107
mean anomaly at epoch: 245.1487°
orbit number at epoch: 24468

The dashed part of the orbit path shows where the satellite is in the earth's shadow,  

DLR